| time (UTC) | temp F | wind direction | speed MPH | gust MPH | rain 1hr in | rain 24hr in | rain mn in | humidity % | barometer mb |
| 20260508051204 | 46 | 181 | 3.0 | 2.0 | 0.00 | 0.00 | 0.00 | 72 | 978.5 |
| 20260508050703 | 46 | 181 | 3.0 | 2.0 | 0.00 | 0.00 | 0.00 | 72 | 978.5 |
| 20260508040703 | 46 | 181 | 3.0 | 2.0 | 0.00 | 0.00 | 0.00 | 72 | 978.5 |
| 20260508023703 | 46 | 181 | 3.0 | 2.0 | 0.00 | 0.00 | 0.00 | 72 | 978.5 |
| 20260508021703 | 46 | 181 | 3.0 | 2.0 | 0.00 | 0.00 | 0.00 | 72 | 978.5 |
| 20260508021203 | 46 | 181 | 3.0 | 2.0 | 0.00 | 0.00 | 0.00 | 72 | 978.5 |
| 20260508020703 | 46 | 181 | 3.0 | 2.0 | 0.00 | 0.00 | 0.00 | 72 | 978.5 |
| 20260508013704 | 46 | 181 | 3.0 | 2.0 | 0.00 | 0.00 | 0.00 | 72 | 978.5 |
| 20260508013203 | 46 | 181 | 3.0 | 2.0 | 0.00 | 0.00 | 0.00 | 72 | 978.4 |
| 20260508011703 | 47 | 181 | 3.0 | 2.0 | 0.00 | 0.00 | 0.00 | 69 | 978.2 |
| 20260508010703 | 48 | 181 | 3.0 | 2.0 | 0.00 | 0.00 | 0.00 | 67 | 978.1 |
| 20260508010204 | 49 | 181 | 3.0 | 2.0 | 0.00 | 0.00 | 0.00 | 67 | 978.0 |
| 20260508004704 | 50 | 181 | 3.0 | 2.0 | 0.00 | 0.00 | 0.00 | 63 | 977.9 |
| 20260508004204 | 50 | 181 | 3.0 | 2.0 | 0.00 | 0.00 | 0.00 | 61 | 977.9 |
| 20260508003703 | 51 | 181 | 3.0 | 2.0 | 0.00 | 0.00 | 0.00 | 61 | 977.9 |
| 20260508003203 | 51 | 181 | 3.0 | 2.0 | 0.00 | 0.00 | 0.00 | 62 | 977.8 |
| 20260508001703 | 52 | 181 | 3.0 | 2.0 | 0.00 | 0.00 | 0.00 | 56 | 977.7 |
| 20260508001203 | 52 | 181 | 3.0 | 2.0 | 0.00 | 0.00 | 0.00 | 56 | 977.7 |
| 20260508000703 | 53 | 181 | 3.0 | 2.0 | 0.00 | 0.00 | 0.00 | 56 | 977.6 |
| 20260508000205 | 53 | 181 | 3.0 | 2.0 | 0.00 | 0.00 | 0.00 | 56 | 977.5 |
| 20260507234704 | 55 | 181 | 3.0 | 2.0 | 0.00 | 0.00 | 0.00 | 51 | 977.2 |
| 20260507234203 | 55 | 181 | 3.0 | 2.0 | 0.00 | 0.00 | 0.00 | 50 | 977.2 |
| 20260507233703 | 55 | 181 | 3.0 | 2.0 | 0.00 | 0.00 | 0.00 | 50 | 977.2 |
| 20260507233204 | 55 | 181 | 3.0 | 2.0 | 0.00 | 0.00 | 0.00 | 48 | 977.3 |
| 20260507231704 | 55 | 181 | 3.0 | 2.0 | 0.00 | 0.00 | 0.00 | 48 | 977.2 |
| 20260507231204 | 55 | 181 | 3.0 | 2.0 | 0.00 | 0.00 | 0.00 | 50 | 977.3 |
| 20260507230203 | 56 | 181 | 3.0 | 7.0 | 0.00 | 0.00 | 0.00 | 48 | 977.3 |
| 20260507224703 | 57 | 181 | 2.0 | 5.0 | 0.00 | 0.00 | 0.00 | 49 | 977.2 |
| 20260507224203 | 58 | 190 | 3.0 | 7.0 | 0.00 | 0.70 | 0.00 | 46 | 977.2 |
| 20260507223703 | 58 | 222 | 2.0 | 5.0 | 0.00 | 0.70 | 0.00 | 48 | 977.2 |
| 20260507223203 | 57 | 218 | 3.0 | 7.0 | 0.00 | 0.70 | 0.00 | 46 | 977.1 |
| 20260507220704 | 57 | 205 | 2.0 | 6.0 | 0.00 | 0.70 | 0.00 | 49 | 977.1 |
| 20260507220203 | 57 | 188 | 5.0 | 9.0 | 0.00 | 0.70 | 0.00 | 49 | 977.1 |
| 20260507214704 | 57 | 186 | 3.0 | 5.0 | 0.00 | 0.70 | 0.00 | 50 | 976.7 |
| 20260507214203 | 57 | 179 | 3.0 | 6.0 | 0.00 | 0.70 | 0.00 | 51 | 976.7 |
| 20260507213703 | 58 | 214 | 3.0 | 6.0 | 0.00 | 0.70 | 0.00 | 50 | 976.6 |
| 20260507213203 | 58 | 195 | 3.0 | 7.0 | 0.00 | 0.70 | 0.00 | 49 | 976.5 |
| 20260507211704 | 57 | 218 | 2.0 | 8.0 | 0.00 | 0.70 | 0.00 | 46 | 976.2 |
| 20260507211204 | 58 | 186 | 3.0 | 7.0 | 0.00 | 0.70 | 0.00 | 47 | 976.1 |
| 20260507210203 | 58 | 278 | 2.0 | 8.0 | 0.00 | 0.70 | 0.00 | 48 | 975.9 |
| 20260507204703 | 59 | 181 | 3.0 | 6.0 | 0.00 | 0.70 | 0.00 | 46 | 976.0 |
| 20260507204203 | 59 | 205 | 2.0 | 6.0 | 0.00 | 0.70 | 0.00 | 45 | 976.0 |
| 20260507203704 | 60 | 165 | 3.0 | 6.0 | 0.00 | 0.70 | 0.00 | 42 | 975.9 |
| 20260507203203 | 60 | 157 | 3.0 | 7.0 | 0.00 | 0.70 | 0.00 | 44 | 975.8 |
| 20260507201703 | 59 | 167 | 3.0 | 7.0 | 0.00 | 0.70 | 0.00 | 45 | 975.9 |
| 20260507201203 | 59 | 146 | 3.0 | 6.0 | 0.00 | 0.70 | 0.00 | 45 | 976.0 |
| 20260507200703 | 60 | 179 | 3.0 | 6.0 | 0.00 | 0.70 | 0.00 | 45 | 976.0 |
| 20260507200204 | 60 | 141 | 3.0 | 9.0 | 0.00 | 0.70 | 0.00 | 44 | 976.0 |
| 20260507194703 | 60 | 194 | 3.0 | 9.0 | 0.00 | 0.70 | 0.00 | 47 | 976.1 |
| 20260507194203 | 60 | 196 | 2.0 | 5.0 | 0.00 | 0.70 | 0.00 | 45 | 976.2 |
| 20260507193703 | 60 | 173 | 3.0 | 6.0 | 0.00 | 0.70 | 0.00 | 46 | 976.2 |
| 20260507193203 | 59 | 179 | 3.0 | 7.0 | 0.00 | 0.70 | 0.00 | 43 | 976.3 |
| 20260507191703 | 60 | 123 | 2.0 | 10.0 | 0.00 | 0.70 | 0.00 | 43 | 976.4 |
| 20260507191203 | 60 | 262 | 3.0 | 10.0 | 0.00 | 0.70 | 0.00 | 41 | 976.4 |
| 20260507190703 | 60 | 157 | 3.0 | 8.0 | 0.00 | 0.70 | 0.00 | 45 | 976.5 |
| 20260507190204 | 60 | 160 | 3.0 | 8.0 | 0.00 | 0.70 | 0.00 | 45 | 976.4 |
| 20260507184703 | 60 | 175 | 2.0 | 2.0 | 0.00 | 0.70 | 0.00 | 45 | 976.4 |
| 20260507184204 | 59 | 175 | 2.0 | 2.0 | 0.00 | 0.70 | 0.00 | 47 | 976.5 |
| 20260507183704 | 59 | 175 | 2.0 | 2.0 | 0.00 | 0.70 | 0.00 | 43 | 976.5 |
| 20260507183204 | 59 | 175 | 2.0 | 2.0 | 0.00 | 0.70 | 0.00 | 46 | 976.4 |
| 20260507181703 | 58 | 178 | 2.0 | 2.0 | 0.00 | 0.70 | 0.00 | 47 | 976.6 |
| 20260507181204 | 58 | 178 | 2.0 | 2.0 | 0.00 | 0.70 | 0.00 | 45 | 976.6 |
| 20260507180704 | 59 | 178 | 2.0 | 2.0 | 0.00 | 0.70 | 0.00 | 44 | 976.6 |
| 20260507174703 | 59 | 178 | 2.0 | 2.0 | 0.00 | 0.70 | 0.00 | 44 | 976.9 |
| 20260507173703 | 58 | 178 | 2.0 | 2.0 | 0.00 | 0.70 | 0.00 | 46 | 977.0 |
| 20260507171703 | 58 | 178 | 2.0 | 2.0 | 0.00 | 0.70 | 0.00 | 46 | 977.2 |
| 20260507171203 | 58 | 178 | 2.0 | 2.0 | 0.00 | 0.70 | 0.00 | 45 | 977.2 |
| 20260507170704 | 58 | 178 | 2.0 | 2.0 | 0.00 | 0.70 | 0.00 | 43 | 977.3 |
| 20260507170203 | 57 | 178 | 2.0 | 2.0 | 0.00 | 0.70 | 0.00 | 47 | 977.3 |
| 20260507164704 | 58 | 178 | 2.0 | 2.0 | 0.00 | 0.70 | 0.00 | 46 | 977.4 |
| 20260507164204 | 58 | 178 | 2.0 | 2.0 | 0.00 | 0.70 | 0.00 | 48 | 977.4 |
| 20260507163704 | 57 | 178 | 2.0 | 7.0 | 0.00 | 0.70 | 0.00 | 47 | 977.4 |
| 20260507163204 | 57 | 142 | 3.0 | 7.0 | 0.00 | 0.70 | 0.00 | 48 | 977.4 |
| 20260507161704 | 56 | 152 | 3.0 | 6.0 | 0.00 | 0.70 | 0.00 | 49 | 977.6 |
| 20260507161203 | 56 | 153 | 3.0 | 5.0 | 0.00 | 0.70 | 0.00 | 51 | 977.4 |
| 20260507160704 | 56 | 139 | 3.0 | 6.0 | 0.00 | 0.70 | 0.00 | 48 | 977.4 |
| 20260507160204 | 56 | 154 | 2.0 | 6.0 | 0.00 | 0.70 | 0.00 | 48 | 977.5 |
| 20260507154703 | 56 | 153 | 3.0 | 6.0 | 0.00 | 0.70 | 0.00 | 51 | 977.7 |
| 20260507154203 | 56 | 162 | 2.0 | 6.0 | 0.00 | 0.70 | 0.00 | 46 | 977.8 |
| 20260507153705 | 56 | 189 | 2.0 | 7.0 | 0.00 | 0.70 | 0.00 | 48 | 977.8 |
| 20260507153203 | 56 | 243 | 3.0 | 7.0 | 0.00 | 0.70 | 0.00 | 50 | 977.8 |
| 20260507151704 | 55 | 199 | 2.0 | 7.0 | 0.00 | 0.70 | 0.00 | 54 | 977.8 |
| 20260507151203 | 55 | 205 | 3.0 | 7.0 | 0.00 | 0.70 | 0.00 | 49 | 978.0 |
| 20260507150704 | 54 | 269 | 2.0 | 5.0 | 0.00 | 0.70 | 0.00 | 51 | 978.1 |
| 20260507150203 | 54 | 191 | 3.0 | 7.0 | 0.00 | 0.70 | 0.00 | 52 | 978.1 |
| 20260507143703 | 54 | 190 | 3.0 | 6.0 | 0.00 | 0.70 | 0.00 | 54 | 978.3 |
| 20260507143204 | 54 | 148 | 2.0 | 6.0 | 0.00 | 0.70 | 0.00 | 56 | 978.4 |
| 20260507134703 | 50 | 151 | 2.0 | 3.0 | 0.00 | 0.70 | 0.00 | 72 | 979.1 |
| 20260507134204 | 50 | 155 | 2.0 | 5.0 | 0.00 | 0.70 | 0.00 | 70 | 979.2 |
| 20260507133704 | 50 | 154 | 2.0 | 5.0 | 0.00 | 0.70 | 0.00 | 71 | 979.2 |
| 20260507133203 | 49 | 151 | 3.0 | 5.0 | 0.00 | 0.70 | 0.00 | 73 | 979.3 |
| 20260507131204 | 48 | 159 | 2.0 | 3.0 | 0.00 | 0.70 | 0.00 | 78 | 979.4 |
| 20260507124704 | 44 | 266 | 1.0 | 2.0 | 0.00 | 0.70 | 0.00 | 88 | 979.3 |
| 20260507124204 | 44 | 280 | 2.0 | 3.0 | 0.00 | 0.70 | 0.00 | 90 | 979.4 |
| 20260507123204 | 42 | 175 | 1.0 | 1.0 | 0.00 | 0.70 | 0.00 | 97 | 979.4 |
| 20260507121704 | 40 | 175 | 1.0 | 1.0 | 0.00 | 0.70 | 0.00 | 97 | 979.4 |
| 20260507121204 | 40 | 175 | 1.0 | 1.0 | 0.00 | 0.70 | 0.00 | 97 | 979.4 |
| 20260507120203 | 38 | 175 | 1.0 | 1.0 | 0.00 | 0.70 | 0.00 | 97 | 979.5 |
| 20260507114704 | 37 | 175 | 1.0 | 1.0 | 0.00 | 0.70 | 0.00 | 97 | 979.3 |
| 20260507114203 | 37 | 175 | 1.0 | 1.0 | 0.00 | 0.70 | 0.00 | 97 | 979.4 |
| 20260507113705 | 36 | 175 | 1.0 | 1.0 | 0.00 | 0.70 | 0.00 | 97 | 979.3 |
| 20260507113204 | 36 | 175 | 1.0 | 1.0 | 0.00 | 0.70 | 0.00 | 97 | 979.3 |
| 20260507111704 | 36 | 175 | 1.0 | 1.0 | 0.00 | 0.70 | 0.00 | 97 | 979.2 |
| 20260507111203 | 36 | 175 | 1.0 | 1.0 | 0.00 | 0.70 | 0.00 | 97 | 979.2 |
| 20260507110704 | 35 | 175 | 1.0 | 1.0 | 0.00 | 0.70 | 0.00 | 97 | 979.2 |
| 20260507110204 | 35 | 175 | 1.0 | 1.0 | 0.00 | 0.70 | 0.00 | 97 | 979.2 |
| 20260507104703 | 35 | 175 | 1.0 | 1.0 | 0.00 | 0.70 | 0.00 | 97 | 979.1 |
| 20260507104204 | 36 | 175 | 1.0 | 1.0 | 0.00 | 0.70 | 0.00 | 97 | 979.1 |
| 20260507103203 | 35 | 175 | 1.0 | 1.0 | 0.00 | 0.70 | 0.00 | 97 | 979.0 |
| 20260507101704 | 35 | 175 | 1.0 | 1.0 | 0.00 | 0.70 | 0.00 | 97 | 978.9 |
| 20260507101204 | 36 | 175 | 1.0 | 1.0 | 0.00 | 0.70 | 0.00 | 97 | 978.9 |
| 20260507100704 | 36 | 175 | 1.0 | 1.0 | 0.00 | 0.70 | 0.00 | 97 | 978.9 |
| 20260507094204 | 36 | 175 | 1.0 | 1.0 | 0.00 | 0.70 | 0.00 | 97 | 978.9 |
| 20260507093703 | 36 | 175 | 1.0 | 1.0 | 0.00 | 0.70 | 0.00 | 97 | 978.9 |
| 20260507093203 | 36 | 175 | 1.0 | 1.0 | 0.00 | 0.70 | 0.00 | 97 | 978.9 |
| 20260507091203 | 36 | 175 | 1.0 | 1.0 | 0.00 | 0.70 | 0.00 | 97 | 978.9 |
| 20260507090704 | 36 | 175 | 1.0 | 1.0 | 0.00 | 0.70 | 0.00 | 97 | 978.9 |
| 20260507090204 | 37 | 175 | 1.0 | 1.0 | 0.00 | 0.70 | 0.00 | 97 | 978.9 |
| 20260507084204 | 37 | 175 | 1.0 | 1.0 | 0.00 | 0.70 | 0.00 | 97 | 979.0 |
| 20260507083704 | 37 | 175 | 1.0 | 1.0 | 0.00 | 0.70 | 0.00 | 97 | 979.0 |
| 20260507083203 | 37 | 175 | 1.0 | 1.0 | 0.00 | 0.70 | 0.00 | 97 | 979.0 |
| 20260507081704 | 38 | 175 | 1.0 | 1.0 | 0.00 | 0.70 | 0.00 | 97 | 979.0 |
| 20260507081204 | 38 | 175 | 1.0 | 1.0 | 0.00 | 0.70 | 0.00 | 97 | 979.1 |
| 20260507080703 | 38 | 175 | 1.0 | 1.0 | 0.00 | 0.70 | 0.00 | 97 | 979.1 |
| 20260507080204 | 38 | 175 | 1.0 | 1.0 | 0.00 | 0.70 | 0.00 | 97 | 979.0 |
| 20260507074703 | 38 | 175 | 1.0 | 1.0 | 0.00 | 0.70 | 0.00 | 97 | 979.0 |
| 20260507074206 | 38 | 175 | 1.0 | 1.0 | 0.00 | 0.70 | 0.00 | 97 | 979.0 |
| 20260507073206 | 39 | 175 | 1.0 | 1.0 | 0.00 | 0.70 | 0.00 | 97 | 979.0 |
| 20260507071706 | 39 | 175 | 1.0 | 1.0 | 0.00 | 0.70 | 0.00 | 97 | 979.0 |
| 20260507071206 | 39 | 175 | 1.0 | 1.0 | 0.00 | 0.70 | 0.00 | 97 | 978.9 |
| 20260507070706 | 39 | 175 | 1.0 | 1.0 | 0.00 | 0.70 | 0.00 | 97 | 979.0 |